CZ-6A DEB, 61468

Orbit data source: Space-Track

CZ-6A DEB, 61468 is space debris in LEO originally from a launch on Tue, 06 Aug 2024 UTC launched from the Taiyaun Space Center, China (TSC). Debris objects in space refer to the collection of defunct objects orbiting the Earth. Examples of debris include non-operational satellites, rocket bodies, and fragments generated from explosions, collisions, or faulty payload assembly.

Loading next visibility...
CZ-6A DEB details
Identifier
61468, 2024-140AAA
Orbit
LEO
Last TLE update1 day ago
Origin
Flag of CNCNSA (CN / PRC)
ManufacturerSAST
MissionSpacecraft
Bus & MotorUnknown
MassUnknown
Launch date (UTC)
2024-08-06 (6 months ago)
Launch vehicleUnknown
Launch site
Taiyaun Space Center, China (TSC)
Object type
Payload
Rocket body
Debris
Shape & HBRUnknown
Radar Cross SectionSmall (<0.1 m²)

Expand to show TLE details & history

TLE from 1 day ago
0 CZ-6A DEB
1 61468U 24140AAA 25034.82942243  .00078722  00000-0  88501-2 0  9994
2 61468  89.2167 334.1245 0124896  88.3440 273.2085 14.80796586 22622
Epoch: 2025-02-03T19:54Z
Definitive object data (Epoch: 2025-02-03T19:54:22.097Z)
Latitude-0.00007°
Longitude-98.71102°
Altitude626.145 km
Speed7.547 km/s
True Right ascension22h 16m 29s
True Declination0° 00' 00"
Sunlit
Object was in daylight at TLE epoch
Visualization TLE readout
Latitude28.21692°
Longitude80.72915°
Altitude597.077 km
Speed7.581 km/s
Apparent Right ascension13h 32m 59s
Apparent Declination-17° 08' 41"
Sunlit
Object is in full shadow
Visualization observer readout
Local Sidereal Time08:40:11
Azimuth113.793° SE
Elevation1.301°
Doppler factor1
Orbital elements
Apogee altitude711.123 km
Perigee altitude536.224 km
Semi-major axis7,001.811 km
Eccentricity0.0124896
Inclination89.2167°
RAAN334.1245°
Arg. of periapsis88.344°
True anomaly271.77844°
Mean anomaly273.2085°
Eccentric anomaly272.49358°
Mean motion3.70448 °/min
BSTAR0.0088501
Orbital period97.18 mins
Loading maneuver chart data...
Loading historical data...
Loading historical data...
Loading historical data...
Loading historical data...
Loading historical data...
Loading historical data...
Loading historical data...

CZ-6A DEB Visibility forecast

Observer location: undefined°, undefined

Span
Click to sort rows by Start time (UTC) header in descending order
Start Az.
Max El. time (UTC)
Max El. Az.
Max El.
End time (UTC)
End Az.
7 mins2025-02-05 08:08:59.299Z0.369° NNE2025-02-05 08:11:59.299Z338.513° N44.75°2025-02-05 08:15:59.299Z183.675° SSW
5 mins2025-02-05 20:41:59.299Z219.868° SW2025-02-05 20:43:59.299Z272.422° WNW30.98°2025-02-05 20:46:59.299Z336.546° NNW
|